Regional Weather Roundup
Issued by NWS

Home | Current Version | Previous Version | Graphics & Text | Print | Product List | Glossary On
Versions: 1 2 3 4 5 6 7 8 9 10 11 12 13 14 15 16 17 18 19 20 21 22 23 24 25 26 27 28 29 30 31 32 33 34 35 36 37 38 39 40 41 42 43 44 45 46 47 48 49 50
000
ASUS45 KPSR 171210
RWRAZ

ARIZONA HOURLY REGIONAL WEATHER ROUNDUP
NATIONAL WEATHER SERVICE PHOENIX AZ
500 AM MST TUE OCT 17 2017

NOTE: FAIR INDICATES FEW OR NO CLOUDS BELOW 12,000 FEET WITH NO
SIGNIFICANT WEATHER AND/OR OBSTRUCTIONS TO VISIBILITY.

AZZ001>003-036-171300-
NORTHWEST ARIZONA

CITY           SKY/WX    TMP DP  RH WIND       PRES   REMARKS
BULLHEAD CITY  CLEAR     68  30  24 VRB3      30.02S
KINGMAN        CLEAR     48  17  29 CALM      30.18S
6HR MIN TEMP:  47; 6HR MAX TEMP:  59;

$$

AZZ004>008-015-016-018-171300-
NORTH CENTRAL ARIZONA

CITY           SKY/WX    TMP DP  RH WIND       PRES   REMARKS
GRAND CANYON   MOCLDY    30  11  45 CALM      30.39R
6HR MIN TEMP:  29; 6HR MAX TEMP:  36;

WILLIAMS       PTCLDY    41  23  48 S10       30.38R
PRESCOTT       PTCLDY    47  28  47 S5        30.28S
6HR MIN TEMP:  45; 6HR MAX TEMP:  56;

FLAGSTAFF      PTCLDY    33  22  63 CALM      30.40S
6HR MIN TEMP:  33; 6HR MAX TEMP:  39;

PAYSON           N/A     63  39  42 E5        30.30S
PAGE           MOCLDY    47  14  26 SW3       30.30S
6HR MIN TEMP:  46; 6HR MAX TEMP:  53;

$$

AZZ009>014-017-171300-
NORTHEAST ARIZONA

CITY           SKY/WX    TMP DP  RH WIND       PRES   REMARKS
WINSLOW        PTCLDY    40  13  33 E3        30.33R
6HR MIN TEMP:  36; 6HR MAX TEMP:  47;

SAINT JOHNS    CLEAR     41  24  51 CALM      30.35R
6HR MIN TEMP:  39; 6HR MAX TEMP:  54;

WINDOW ROCK    CLEAR     29  11  47 CALM      30.42R
6HR MIN TEMP:  26; 6HR MAX TEMP:  40;

SHOW LOW       CLEAR     43  32  65 SE3       30.38S
$$

AZZ540-542>544-546-548-171300-
GREATER PHOENIX AREA

CITY           SKY/WX    TMP DP  RH WIND       PRES   REMARKS
PHOENIX        CLEAR     73  43  33 CALM      29.99R
6HR MIN TEMP:  72; 6HR MAX TEMP:  80;

BUCKEYE        PTCLDY    64  27  24 N3        29.99S
LUKE AFB       CLEAR     66  40  38 N9        29.99R
6HR MIN TEMP:  65; 6HR MAX TEMP:  77;

DEER VALLEY    CLEAR     74  38  27 CALM      30.02R
6HR MIN TEMP:  72; 6HR MAX TEMP:  82;

SCOTTSDALE     CLEAR     70  45  40 CALM      30.03R
6HR MIN TEMP:  70; 6HR MAX TEMP:  80;

MESA-GATEWAY   CLEAR     66  45  45 SE3       30.03R
$$

AZZ539-553-171300-
SOUTHWEST MARICOPA COUNTY AND PINAL COUNTY

CITY           SKY/WX    TMP DP  RH WIND       PRES   REMARKS
CASA GRANDE    NOT AVBL
$$

AZZ503-504-507>509-171300-
SOUTHEAST ARIZONA

CITY           SKY/WX    TMP DP  RH WIND       PRES   REMARKS
TUCSON         CLEAR     75  46  35 E10       30.11R
6HR MIN TEMP:  75; 6HR MAX TEMP:  79;

DAVIS-MONTHAN  CLEAR     73  43  33 SE12      30.09R
NOGALES        CLEAR     61  47  59 NE6       30.17R
6HR MIN TEMP:  61; 6HR MAX TEMP:  73;

SIERRA VISTA   CLEAR     59  44  56 W3        30.25S
6HR MIN TEMP:  59; 6HR MAX TEMP:  68;

DOUGLAS        CLEAR     58  44  60 N10       30.22R
6HR MIN TEMP:  57; 6HR MAX TEMP:  66;

SAFFORD        CLEAR     65  42  43 SE10      30.18S
6HR MIN TEMP:  64; 6HR MAX TEMP:  72;

$$

AZZ532-171300-
SOUTHWEST ARIZONA

CITY           SKY/WX    TMP DP  RH WIND       PRES   REMARKS
YUMA           PTCLDY    76  16  10 N7        29.94R
6HR MIN TEMP:  73; 6HR MAX TEMP:  80;

$$

CAZ041-043-047-048-061-525>527-560>570-171300-
SOUTHERN CALIFORNIA

CITY           SKY/WX    TMP DP  RH WIND       PRES   REMARKS
DOWNTOWN L.A.  CLEAR     69  33  26 CALM      29.96R
6HR MIN TEMP:  69; 6HR MAX TEMP:  74;

SAN DIEGO      MOCLDY    68  41  37 CALM      29.97S
6HR MIN TEMP:  67; 6HR MAX TEMP:  75;

BURBANK        CLEAR     65  30  27 CALM      29.99S
6HR MIN TEMP:  64; 6HR MAX TEMP:  76;

ONTARIO        PTCLDY    66  36  32 VRB5      30.00S
6HR MIN TEMP:  63; 6HR MAX TEMP:  76;

RIVERSIDE      CLEAR     65  31  28 NE5       30.00S
6HR MIN TEMP:  63; 6HR MAX TEMP:  72;

PALM SPRINGS   CLEAR     71  21  15 NW8       29.99S
6HR MIN TEMP:  71; 6HR MAX TEMP:  80;

EL CENTRO NAS  PTCLDY    62  21  20 SW5       29.95S
6HR MIN TEMP:  61; 6HR MAX TEMP:  70;

IMPERIAL       PTCLDY    63  29  27 SW6       29.93S
6HR MIN TEMP:  61; 6HR MAX TEMP:  71;

BLYTHE         PTCLDY    67  10  11 SW7       29.99R
6HR MIN TEMP:  67; 6HR MAX TEMP:  77;

NEEDLES        CLEAR     65   4   9 W5        30.03S
6HR MIN TEMP:  65; 6HR MAX TEMP:  75;

$$

NVZ020-UTZ003-171300-
SOUTHERN NEVADA-UTAH

CITY           SKY/WX    TMP DP  RH WIND       PRES   REMARKS
LAS VEGAS      CLEAR     57  13  17 SW3       30.13R
6HR MIN TEMP:  57; 6HR MAX TEMP:  66;

SALT LAKE CITY PTCLDY    41  30  65 SE7       30.30F
6HR MIN TEMP:  39; 6HR MAX TEMP:  47;

$$

NMZ009-TXZ055-171300-
NEW MEXICO-WEST TEXAS

CITY           SKY/WX    TMP DP  RH WIND       PRES   REMARKS
ALBUQUERQUE    CLOUDY    48  27  44 N5        30.34S
6HR MIN TEMP:  48; 6HR MAX TEMP:  60;

EL PASO        CLEAR     55  38  52 NE6       30.27S
6HR MIN TEMP:  55; 6HR MAX TEMP:  66;

$$


........................KEY........................
SKY/WX - SKY CONDITION/WEATHER
TMP    - TEMPERATURE IN FAHRENHEIT
DP     - DEW POINT IN FAHRENHEIT
RH     - RELATIVE HUMIDITY IN PERCENT
WIND   - DIRECTION AND SPEED IN MILES PER HOUR (MPH)
VRB    - VARIABLE WIND DIRECTION
PRES   - MEAN SEA LEVEL PRESSURE IN INCHES OF MERCURY
         F - FALLING PRESSURE   R - RISING PRESSURE
         S - STEADY PRESSURE
VSB    - VISIBILITY IN MILES
HX     - HEAT INDEX IN FAHRENHEIT
WCI    - WIND CHILL INDEX IN FAHRENHEIT
TC     - TEMPERATURE IN CELSIUS WHICH IS ALSO KNOWN AS
         TEMPERATURE IN CENTIGRADE
AFB    - AIR FORCE BASE
         LUKE AFB IS LUKE AIR FORCE BASE
         DAVIS-MONTHAN IS DAVIS-MONTHAN AIR FORCE BASE
NAS    - NAVAL AIR STATION
         EL CENTRO NAS IS EL CENTRO NAVAL AIR STATION
N/A    - NOT AVAILABLE




USA.gov is the U.S. government's official web portal to all federal, state and local government web resources and services.